• Join FlightAware (Why Join?)
  • Login
  • US Flag 
01:16PM EST


 

Airport Tracker/Info


-or-


 

Live Flight TrackerFlight Track Log ✈ KAP550 ✈ 08-Jul-2013 ✈ KALB - KMSS

Flight Track Log - Related Links

Times and Time Zones

All times are in EDT time to prevent confusion due to time zone crossing. See the KAP550 flight status page for this flight to view local times or setup timezone preferences in your user account.

Time Position Orientation Groundspeed Altitude Reporting Facility
EDT Latitude Longitude Course Direction KTS MPH feet Rate Location/Type
06:43PM 43.3425 -74.1331 321° Northwest 179 206 10,600  Level Boston Center
06:44PM 43.3792 -74.1742 321° Northwest 186 214 10,600 50 Level Boston Center
06:45PM 43.4264 -74.2183 326° Northwest 186 214 10,700 50 Climbing Boston Center
06:46PM 43.4656 -74.2567 325° Northwest 181 208 10,700  Level Boston Center
06:47PM 43.5044 -74.2978 323° Northwest 176 203 10,700  Level Boston Center
06:48PM 43.5497 -74.3278 334° Northwest 176 203 10,700  Level Boston Center
06:49PM 43.5975 -74.3436 347° North 170 196 10,700  Level Boston Center
06:50PM 43.6472 -74.3567 349° North 170 196 10,700 -183 Level Boston Center
06:51PM 43.6947 -74.3783 342° North 170 196 10,300 -400 Descending Boston Center
06:52PM 43.7467 -74.3944 347° North 181 208 9,900 -446 Descending Boston Center
06:53PM 43.8089 -74.4167 346° North 181 208 9,400 -400 Descending Boston Center
06:54PM 43.8606 -74.4383 343° North 181 208 9,100 -353 Descending Boston Center
06:55PM 43.9122 -74.4544 347° North 181 208 8,700 -397 Descending Boston Center
06:56PM 43.9642 -74.4736 345° North 181 208 8,300 -350 Descending Boston Center
06:57PM 44.0158 -74.4956 343° North 181 208 8,000 -353 Descending Boston Center
06:58PM 44.0675 -74.5119 347° North 186 214 7,600 -347 Descending Boston Center
06:59PM 44.1172 -74.5308 345° North 186 214 7,300 -347 Descending Boston Center
07:00PM 44.1711 -74.5531 344° North 186 214 6,900 -353 Descending Boston Center
07:01PM 44.2228 -74.5781 341° North 186 214 6,600 -353 Descending Boston Center
07:02PM 44.2744 -74.6031 341° North 186 214 6,200 -400 Descending Boston Center
07:03PM 44.3261 -74.6225 345° North 186 214 5,800 -400 Descending Boston Center
07:04PM 44.3800 -74.6419 346° North 186 214 5,400 -450 Descending Boston Center
07:05PM 44.4314 -74.6669 341° North 186 214 4,900 -446 Descending Boston Center
07:06PM 44.4728 -74.6889 339° North 191 220 4,500 -298 Descending Boston Center
07:07PM 44.5347 -74.7175 342° North 191 220 4,300 3,000 Descending Boston Center
07:08PM 44.5864 -74.7428 341° North 191 220 10,500 6,200 Climbing Boston Center